TimeCDT,TemperatureF,Dew PointF,Humidity,Sea Level PressureIn,VisibilityMPH,Wind Direction,Wind SpeedMPH,Gust SpeedMPH,PrecipitationIn,Events,Conditions,WindDirDegrees,DateUTC
12:56 AM,35.1,26.1,70,30.27,-9999.0,NW,12.7,-,N/A,,Unknown,310,2012-10-05 05:56:00
1:56 AM,34.0,26.1,73,30.27,-9999.0,NW,15.0,-,N/A,,Unknown,320,2012-10-05 06:56:00
2:56 AM,34.0,26.1,73,30.27,-9999.0,NW,15.0,-,N/A,,Unknown,320,2012-10-05 07:56:00
3:56 AM,32.0,25.0,75,30.25,-9999.0,NW,15.0,-,N/A,,Unknown,320,2012-10-05 08:56:00
4:56 AM,30.9,24.1,76,30.25,-9999.0,NW,13.8,-,N/A,,Unknown,320,2012-10-05 09:56:00
5:56 AM,30.0,23.0,75,30.26,-9999.0,NW,15.0,-,N/A,,Unknown,320,2012-10-05 10:56:00
6:56 AM,30.0,21.9,72,30.26,-9999.0,NW,12.7,-,N/A,,Unknown,320,2012-10-05 11:56:00
7:56 AM,30.0,21.9,72,30.27,-9999.0,NW,16.1,24.2,N/A,,Unknown,320,2012-10-05 12:56:00
8:56 AM,32.0,23.0,69,30.27,-9999.0,NNW,20.7,26.5,N/A,,Unknown,330,2012-10-05 13:56:00
9:56 AM,35.1,23.0,61,30.28,-9999.0,NNW,23.0,28.8,N/A,,Unknown,340,2012-10-05 14:56:00
10:56 AM,37.0,25.0,62,30.28,-9999.0,NNW,21.9,31.1,N/A,,Unknown,340,2012-10-05 15:56:00
11:56 AM,41.0,25.0,53,30.27,-9999.0,NNW,19.6,27.6,N/A,,Unknown,340,2012-10-05 16:56:00
12:56 PM,42.1,25.0,51,30.27,-9999.0,NW,21.9,29.9,N/A,,Unknown,320,2012-10-05 17:56:00
1:56 PM,42.1,24.1,49,30.27,-9999.0,NNW,21.9,31.1,N/A,,Unknown,340,2012-10-05 18:56:00
2:56 PM,42.1,24.1,49,30.26,-9999.0,NNW,21.9,31.1,N/A,,Unknown,330,2012-10-05 19:56:00
3:56 PM,42.1,25.0,51,30.27,-9999.0,NNW,23.0,31.1,N/A,,Unknown,340,2012-10-05 20:56:00
4:56 PM,41.0,24.1,51,30.27,-9999.0,North,18.4,-,N/A,,Unknown,350,2012-10-05 21:56:00
5:56 PM,39.0,23.0,53,30.28,-9999.0,NNW,23.0,31.1,N/A,,Unknown,340,2012-10-05 22:56:00
6:56 PM,39.0,24.1,55,30.29,-9999.0,NNW,18.4,25.3,N/A,,Unknown,340,2012-10-05 23:56:00
7:56 PM,37.9,24.1,57,30.31,-9999.0,North,20.7,26.5,N/A,,Unknown,350,2012-10-06 00:56:00
8:56 PM,37.0,28.0,70,30.32,-9999.0,North,18.4,26.5,N/A,,Unknown,350,2012-10-06 01:56:00
9:56 PM,35.1,28.0,76,30.33,-9999.0,NNW,15.0,24.2,N/A,,Unknown,340,2012-10-06 02:56:00
10:56 PM,34.0,28.0,79,30.32,-9999.0,NNW,16.1,-,N/A,,Unknown,340,2012-10-06 03:56:00
11:56 PM,34.0,30.0,85,30.32,-9999.0,North,16.1,-,N/A,,Unknown,350,2012-10-06 04:56:00